Weather History for KPHX - June, 2012

Change the Weather History Date:

Thursday, June 21, 2012

  Actual Average Record
Temperature  
Mean Temperature 95 °F 92 °F  
Max Temperature 109 °F 105 °F 115 °F (1968)
Min Temperature 80 °F 79 °F 57 °F (1923)
Degree Days  
Heating Degree Days 0 0  
Month to date heating degree days 0 0  
Since 1 June heating degree days 0 0  
Since 1 July heating degree days 837 935  
Cooling Degree Days 30 27  
Month to date cooling degree days 570 518  
Year to date cooling degree days 1622 1404  
Since 1 June cooling degree days 570 518  
Growing Degree Days 44 (Base 50)    
Moisture  
Dew Point 36 °F    
Average Humidity 16    
Maximum Humidity 25    
Minimum Humidity 7    
Precipitation  
Precipitation 0.00 in 0.00 in 0.27 in (1972)
Month to date precipitation 0.00 0.01  
Year to date precipitation 0.36 3.22  
Snow  
Snow 0.00 in - - ()
Month to date snowfall 0.0  
Year to date snowfall 0.0  
Since 1 July snowfall 0.0  
Snow Depth 0.00 in    
Sea Level Pressure  
Sea Level Pressure 29.69 in    
Wind  
Wind Speed 6 mph (NW)    
Max Wind Speed 15 mph    
Max Gust Speed 20 mph    
Visibility 10 miles    
Events      
T = Trace of Precipitation, MM = Missing Value Source: NWS Daily Summary

Daily Weather History Graph

Daily Weather History Graph

Search for Another Location

Airport or City:

Trip Planner

Search our weather history database for the weather conditions in past years. The results will help you decide how hot, cold, wet, or windy it might be!

Date:

Astronomy

Jun. 21, 2012 Rise Set
Actual Time 5:18 AM MST 7:41 PM MST
Civil Twilight 4:49 AM MST 8:10 PM MST
Nautical Twilight 4:14 AM MST 8:45 PM MST
Astronomical Twilight 3:35 AM MST 9:24 PM MST
Moon 7:15 AM MST (6/21) 9:13 PM MST (6/21)
Length of Visible Light 15h 20m
Length of Day
14h 22m
Waxing Crescent, 5% of the Moon is Illuminated
Jun 21
Waxing Crescent
Jun 26
First Quarter
Jul 3
Full
Jul 10
Last Quarter
Jul 18
New

Hourly Weather History & Observations

Time (MST) Temp. Dew Point Humidity Pressure Visibility Wind Dir Wind Speed Gust Speed Precip Events Conditions
12:51 AM 91.9 °F 34.0 °F 13% 29.67 in 10.0 mi North 5.8 mph - N/A   Clear
1:51 AM 89.1 °F 37.9 °F 16% 29.68 in 10.0 mi North 5.8 mph - N/A   Clear
2:51 AM 88.0 °F 39.0 °F 18% 29.68 in 10.0 mi Calm Calm - N/A   Clear
3:51 AM 82.9 °F 39.0 °F 21% 29.69 in 10.0 mi Calm Calm - N/A   Clear
4:51 AM 81.0 °F 41.0 °F 24% 29.72 in 10.0 mi ESE 4.6 mph - N/A   Clear
5:51 AM 80.6 °F 39.2 °F 23% 29.80 in 10.0 mi ESE 3.5 mph - N/A   Clear
6:51 AM 84.0 °F 39.0 °F 20% 29.75 in 10.0 mi ESE 4.6 mph - N/A   Clear
7:51 AM 89.1 °F 39.0 °F 17% 29.76 in 10.0 mi East 5.8 mph - N/A   Clear
8:51 AM 93.0 °F 35.1 °F 13% 29.77 in 10.0 mi Variable 4.6 mph - N/A   Clear
9:51 AM 95.0 °F 35.1 °F 12% 29.77 in 10.0 mi East 5.8 mph - N/A   Clear
10:51 AM 99.0 °F 35.1 °F 11% 29.76 in 10.0 mi Calm Calm - N/A   Clear
11:51 AM 102.0 °F 33.1 °F 9% 29.75 in 10.0 mi Variable 4.6 mph - N/A   Clear
12:51 PM 102.9 °F 30.9 °F 8% 29.73 in 10.0 mi NNE 5.8 mph - N/A   Clear
1:51 PM 106.0 °F 30.9 °F 7% 29.70 in 10.0 mi NNW 3.5 mph - N/A   Partly Cloudy
2:51 PM 107.1 °F 32.0 °F 7% 29.68 in 10.0 mi WSW 5.8 mph - N/A   Partly Cloudy
3:51 PM 107.1 °F 30.9 °F 7% 29.65 in 10.0 mi NW 11.5 mph 16.1 mph N/A   Partly Cloudy
4:51 PM 108.0 °F 30.9 °F 7% 29.63 in 10.0 mi WSW 8.1 mph - N/A   Partly Cloudy
5:51 PM 107.1 °F 30.9 °F 7% 29.62 in 10.0 mi West 10.4 mph - N/A   Partly Cloudy
6:51 PM 106.0 °F 34.0 °F 8% 29.62 in 10.0 mi NNW 9.2 mph - N/A   Partly Cloudy
7:51 PM 105.1 °F 36.0 °F 9% 29.62 in 10.0 mi WNW 5.8 mph - N/A   Clear
8:51 PM 102.9 °F 37.0 °F 10% 29.63 in 10.0 mi WNW 12.7 mph - N/A   Clear
9:51 PM 99.0 °F 42.1 °F 14% 29.65 in 10.0 mi West 11.5 mph - N/A   Clear
10:51 PM 97.0 °F 44.1 °F 16% 29.66 in 10.0 mi West 11.5 mph - N/A   Clear
11:51 PM 96.1 °F 41.0 °F 15% 29.66 in 10.0 mi West 10.4 mph - N/A   Clear